Showing default

OPS 0100 (TRANSIT 15), 2754

Orbit data source: Space-Track

OPS 0100 (TRANSIT 15), 2754 is a payload satellite owned by USN NAVAIR (US) in LEO that was launched on Fri, 14 Apr 1967 UTC via an SCOUT A launch vehicle from the Air Force Western Test Range (AFWTR). Payload-class satellites include a variety of spacecraft equipped with specific instruments for various scientific and technological missions. These include communications satellites like Starlink; space stations such as the ISS; scientific satellites like the Hubble; Earth observation satellites from companies like Planet Labs, Umbra, and HawkEye 360; GPS; miniature CubeSats for education and research; and military/defense satellites.

Loading next visibility...
Identifier
2754, 1967-034A
Orbit
LEO
Last TLE update
9 hours ago
Origin
Manufacturer
APL
Mission
Defense Navigation
Bus & Motor
TRANSIT 5, Unknown motor
Mass
~50 kg wet, ~50 kg dry
Launch date (UTC)
1967-04-14 (58 years ago)
Launch vehicle
SCOUT A
Launch site
Air Force Western Test Range (AFWTR)
Object type
Payload
Rocket body
Debris
Shape & HBR
Oct Cyl + 4 Pan + 1 Rod, Unknown HBR
Radar Cross Section
7.565 m², Large (>1 m²)

Expand to show TLE details & history

TLE from 9 hours ago
0 OPS 0100 (TRANSIT 15)
1 02754U 67034A   25183.83714600  .00000088  00000-0  11043-3 0  9994
2 02754  90.2182  27.0560 0021586  88.6376 282.7174 13.57308714878724
Epoch: 2025-07-02T20:05Z
TLE epoch observation values (Epoch: 2025-07-02T20:05:29.414Z)
Latitude
11.06433°
Longitude
164.52847°
Altitude
1,044.204 km
Speed
7.332 km/s
True Right ascension
01h 48m 03s
True Declination
11° 00' 08"
Sunlit
Object was in daylight at epoch
Visualization orbit readout
Latitude
83.46936°
Longitude
162.68289°
Altitude
1,043.216 km
Speed
7.345 km/s
Apparent Right ascension
04h 35m 34s
Apparent Declination
30° 55' 49"
Sunlit
Object is in daylight
Visualization observer readout
Local Sidereal Time
17:03:01
Azimuth
6.216° NNE
Elevation
-18.868°
Doppler factor
1
Orbital elements
Apogee altitude
1,058.546 km
Perigee altitude
1,026.51 km
Semi-major axis
7,420.665 km
Eccentricity
0.00216
Inclination
90.2182°
RAAN
27.056°
Arg. of periapsis
88.6376°
True anomaly
Unknown
Mean anomaly
282.7174°
Eccentric anomaly
Unknown
Mean motion
3.39531 °/min
Orbital period
106.03 mins
BSTAR
0.00011043
Loading maneuver chart data...
Loading SW <> Apogee altitude chart data...
Loading historical data...
Loading historical data...
Loading historical data...
Loading historical data...
Loading historical data...
Loading historical data...
Loading historical data...

OPS 0100 (TRANSIT 15) Visibility forecast

Observer location: undefined°, undefined°

Span
Click to sort rows by Start time (UTC) header in descending order
Start Az.
Max El. time (UTC)
Max El. Az.
Max El.
End time (UTC)
End Az.
11 mins2025-07-03 13:50:31.995Z171.765° S2025-07-03 13:55:31.995Z87.863° E44.785°2025-07-03 14:01:31.995Z359.399° N
4 mins2025-07-03 15:40:31.995Z266.762° W2025-07-03 15:42:31.995Z286.989° WNW13.706°2025-07-03 15:44:31.995Z306.507° NW
9 mins2025-07-04 00:57:31.995Z30.317° NE2025-07-04 01:01:31.995Z79.165° E27.773°2025-07-04 01:06:31.995Z140.567° SSE
10 mins2025-07-04 02:43:31.995Z338.577° N2025-07-04 02:47:31.995Z284.682° WNW32.003°2025-07-04 02:53:31.995Z215.57° SW
|